[TLELIST] Archives

 

[list_settings.list_name] Current TLEs

September 5th 2013 PST

HST 1 20580U 90037B 13247.05437332 .00001536 00000-0 96688-4 0 3246 2 20580 028.4696 115.7083 0003192 108.8062 043.7197 15.03894044 81588 ISS (ZARYA) 1 25544U 98067A 13248.44352429 -.00004856 00000-0 -76030-4 0 5330 2 25544 051.6509 070.6428 0003713 034.4043 050.2478 15.50393394847150 CXO 1 25867U 99040B 13249.91200265 .00000393 00000-0 00000+0 0 9471 2 25867 075.8930 334.8894 8478961 276.7739 000.9055 00.37802254 10848 ____________________________________________________________________ These 2-Line ...Continue Reading

[list_settings.list_name] Current TLEs

September 4th 2013 PST

HST 1 20580U 90037B 13247.05437332 .00001536 00000-0 96688-4 0 3246 2 20580 028.4696 115.7083 0003192 108.8062 043.7197 15.03894044 81588 ISS (ZARYA) 1 25544U 98067A 13247.34321542 .00005531 00000-0 10349-3 0 5249 2 25544 051.6508 076.0937 0003518 035.2598 024.0771 15.50370965846985 CXO 1 25867U 99040B 13249.91097506 .00000393 00000-0 00000+0 0 9462 2 25867 075.8931 334.8905 8478937 276.7734 000.7658 00.37804025 10845 ____________________________________________________________________ These 2-Line ...Continue Reading

[list_settings.list_name] Current TLEs

September 3rd 2013 PST

HST 1 20580U 90037B 13245.84935824 .00001554 00000-0 97923-4 0 3232 2 20580 028.4696 123.6108 0003267 096.7130 358.9793 15.03891202 81393 ISS (ZARYA) 1 25544U 98067A 13246.37684192 .00007627 00000-0 13970-3 0 5177 2 25544 051.6504 080.8845 0003423 031.1579 030.9902 15.50364097846836 CXO 1 25867U 99040B 13247.26904344 .00000442 00000-0 00000+0 0 9448 2 25867 075.8787 335.0442 8478236 276.8038 001.1115 00.37798460 10830 ____________________________________________________________________ These 2-Line ...Continue Reading

[list_settings.list_name] Current TLEs

September 2nd 2013 PST

HST 1 20580U 90037B 13244.15303241 .00001580 00000-0 99798-4 0 3227 2 20580 028.4696 134.7355 0003268 078.8360 174.8327 15.03887202 81143 ISS (ZARYA) 1 25544U 98067A 13245.47787697 .00014299 00000-0 25481-3 0 5107 2 25544 051.6503 085.3402 0003466 027.9783 053.4902 15.50359775846692 CXO 1 25867U 99040B 13247.26588729 .00000442 00000-0 00000+0 0 9454 2 25867 075.8789 335.0437 8478269 276.8036 000.6814 00.37797052 10836 ____________________________________________________________________ These 2-Line ...Continue Reading

[list_settings.list_name] Current TLEs

September 1st 2013 PST

HST 1 20580U 90037B 13244.15303241 .00001580 00000-0 99798-4 0 3227 2 20580 028.4696 134.7355 0003268 078.8360 174.8327 15.03887202 81143 ISS (ZARYA) 1 25544U 98067A 13244.44415372 -.00031347 00000-0 -53700-3 0 5033 2 25544 051.6524 090.4637 0004030 017.2314 050.9642 15.50329336846538 CXO 1 25867U 99040B 13244.62236040 .00000377 00000-0 00000+0 0 9432 2 25867 075.8618 335.1703 8480420 276.8526 000.7631 00.37797952 10826 ____________________________________________________________________ These 2-Line ...Continue Reading

[list_settings.list_name] Current TLEs

August 31st 2013 PST

HST 1 20580U 90037B 13242.78950072 .00001678 00000-0 10674-3 0 3216 2 20580 028.4696 143.6773 0003309 065.5697 351.3990 15.03883261 80933 ISS (ZARYA) 1 25544U 98067A 13243.33241898 .00007463 00000-0 13575-3 0 4978 2 25544 051.6474 095.9778 0004586 017.4049 321.9116 15.50600163846358 CXO 1 25867U 99040B 13244.62236040 .00000377 00000-0 00000+0 0 9432 2 25867 075.8618 335.1703 8480420 276.8526 000.7631 00.37797952 10826 ____________________________________________________________________ These 2-Line ...Continue Reading

[list_settings.list_name] Current TLEs

August 30th 2013 PST

HST 1 20580U 90037B 13241.78355964 .00001253 00000-0 76622-4 0 3208 2 20580 028.4694 150.2844 0003331 057.5160 302.5634 15.03879000 80787 ISS (ZARYA) 1 25544U 98067A 13242.44312863 .00008309 00000-0 15018-3 0 4918 2 25544 051.6498 100.3779 0004557 015.4826 036.4043 15.50607631846225 CXO 1 25867U 99040B 13244.62236040 .00000377 00000-0 00000+0 0 9432 2 25867 075.8618 335.1703 8480420 276.8526 000.7631 00.37797952 10826 ____________________________________________________________________ These 2-Line ...Continue Reading

[list_settings.list_name] Current TLEs

August 29th 2013 PST

HST 1 20580U 90037B 13241.51811491 .00002058 00000-0 14557-3 0 31 2 20580 028.4697 152.0269 0003462 053.2785 306.8581 15.03879640 80746 ISS (ZARYA) 1 25544U 98067A 13241.39990741 .00008176 00000-0 14800-3 0 4851 2 25544 051.6499 105.5504 0004476 012.3451 332.2743 15.50589082846053 CXO 1 25867U 99040B 13241.97833494 .00000214 00000-0 00000+0 0 9422 2 25867 075.8395 335.3246 8483978 276.8834 000.7857 00.37800123 10819 ____________________________________________________________________ These 2-Line ...Continue Reading

[list_settings.list_name] Current TLEs

August 28th 2013 PST

HST 1 20580U 90037B 13240.25719010 .00001930 00000-0 12464-3 0 3165 2 20580 028.4697 160.2968 0003067 043.6945 316.3847 15.03876386 80559 ISS (ZARYA) 1 25544U 98067A 13240.19488816 .00008117 00000-0 14712-3 0 4760 2 25544 051.6503 111.5234 0004369 007.2780 086.3745 15.50567168845874 CXO 1 25867U 99040B 13241.97833494 .00000214 00000-0 00000+0 0 9422 2 25867 075.8395 335.3246 8483978 276.8834 000.7857 00.37800123 10819 ____________________________________________________________________ These 2-Line ...Continue Reading

[list_settings.list_name] Current TLEs

August 27th 2013 PST

HST 1 20580U 90037B 13238.15893182 .00001724 00000-0 11002-3 0 3128 2 20580 028.4695 174.0440 0003321 019.5514 118.2817 15.03869509 80243 ISS (ZARYA) 1 25544U 98067A 13239.29482763 .00009792 00000-0 17586-3 0 4711 2 25544 051.6501 115.9853 0004112 001.6457 104.5543 15.50557845845737 CXO 1 25867U 99040B 13239.33436284 -.00000003 00000-0 00000+0 0 9411 2 25867 075.8241 335.4862 8485978 276.9078 000.8142 00.37801001 10800 ____________________________________________________________________ These 2-Line ...Continue Reading
  • This mailing list is a public mailing list - anyone may join or leave, at any time.
  • This mailing list is announce-only.

International Space Station (ISS) / Hubble Space Telescope (HST) / Chandra X-Ray Observatory Orbital Data via EMAIL

Privacy Policy:

Private list